When you browse on this site, cookies collect data to enhance your experience and personalize the content and advertising you see.
Visit our Privacy Policy to learn more. By continuing to use the site, you agree to this use of cookies and data.
  • In Hungary
  • List of Countries
  • For 7 days
  • Water Temperature
  • Weather Map
  • News
  • Weather Widgets
  • user-avatar
    Login

    Hourly Weather Sylvan Lake

    Today, 18 November, Monday

    Time Temperature Precipitation Wind Pressure Humidity
    00:00 +1°C° 0 mm 5 mps 671 mmHg 68%
    01:00 +1°C° 0 mm 5 mps 672 mmHg 64%
    02:00 0°C° 0 mm 5 mps 672 mmHg 66%
    03:00 -1°C° 0 mm 5 mps 672 mmHg 68%
    04:00 -1°C° 0 mm 5 mps 672 mmHg 70%
    05:00 -2°C° 0 mm 4 mps 672 mmHg 73%
    06:00 -2°C° 0 mm 4 mps 672 mmHg 75%
    07:00 -2°C° 0 mm 3 mps 673 mmHg 78%
    08:00 -1°C° 0 mm 3 mps 673 mmHg 77%
    09:00 0°C° 0 mm 3 mps 673 mmHg 77%
    10:00 +2°C° 0 mm 2 mps 673 mmHg 77%
    11:00 +2°C° 0 mm 2 mps 673 mmHg 77%
    12:00 +2°C° 0 mm 2 mps 673 mmHg 77%
    13:00 +3°C° 0 mm 1 mps 673 mmHg 77%
    14:00 +3°C° 0 mm 1 mps 673 mmHg 77%
    15:00 +2°C° 0 mm 1 mps 672 mmHg 77%
    16:00 +1°C° 0 mm 1 mps 672 mmHg 77%
    17:00 +1°C° 0 mm 1 mps 672 mmHg 78%
    18:00 +1°C° 0 mm 1 mps 672 mmHg 78%
    19:00 -1°C° 0 mm 2 mps 672 mmHg 78%
    20:00 -1°C° 0 mm 2 mps 672 mmHg 78%
    21:00 -1°C° 0 mm 2 mps 672 mmHg 78%
    22:00 -1°C° 0 mm 2 mps 671 mmHg 77%
    23:00 +1°C° 0 mm 1 mps 671 mmHg 78%

    Tomorrow, 19 November, Tuesday

    Time Temperature Precipitation Wind Pressure Humidity
    00:00 +1°C° 0 mm 1 mps 671 mmHg 78%
    01:00 +1°C° 0 mm 1 mps 671 mmHg 79%
    02:00 +1°C° 0.1 mm 1 mps 671 mmHg 83%
    03:00 0°C° 0.1 mm 1 mps 671 mmHg 87%
    04:00 0°C° 0.1 mm 1 mps 671 mmHg 91%
    05:00 -1°C° 0.2 mm 0 mps 671 mmHg 93%
    06:00 -1°C° 0.2 mm 0 mps 672 mmHg 95%
    07:00 -1°C° 0.2 mm 0 mps 672 mmHg 97%
    08:00 -1°C° 0.3 mm 0 mps 672 mmHg 97%
    09:00 0°C° 0.3 mm 0 mps 673 mmHg 97%
    10:00 0°C° 0.3 mm 0 mps 673 mmHg 98%
    11:00 +1°C° 0.8 mm 1 mps 674 mmHg 98%
    12:00 +1°C° 0.8 mm 1 mps 674 mmHg 97%
    13:00 +1°C° 0.8 mm 1 mps 674 mmHg 97%
    14:00 0°C° 0.3 mm 1 mps 674 mmHg 97%
    15:00 0°C° 0.3 mm 1 mps 675 mmHg 96%
    16:00 -1°C° 0.3 mm 1 mps 675 mmHg 95%
    17:00 -1°C° 0.1 mm 1 mps 676 mmHg 96%
    18:00 -3°C° 0.1 mm 2 mps 676 mmHg 97%
    19:00 -3°C° 0.1 mm 2 mps 677 mmHg 97%
    20:00 -3°C° 0.2 mm 2 mps 678 mmHg 97%
    21:00 -4°C° 0.2 mm 3 mps 678 mmHg 97%
    22:00 -4°C° 0.2 mm 3 mps 679 mmHg 96%
    23:00 -5°C° 0.1 mm 3 mps 679 mmHg 96%

    Day after tomorrow, 20 November, Wednesday

    Time Temperature Precipitation Wind Pressure Humidity
    00:00 -5°C° 0.1 mm 3 mps 680 mmHg 95%
    01:00 -6°C° 0.1 mm 3 mps 680 mmHg 94%
    02:00 -6°C° 0 mm 3 mps 680 mmHg 94%
    03:00 -7°C° 0 mm 3 mps 680 mmHg 94%
    04:00 -7°C° 0 mm 3 mps 681 mmHg 94%
    05:00 -6°C° 0 mm 2 mps 681 mmHg 94%
    06:00 -7°C° 0 mm 2 mps 681 mmHg 94%
    07:00 -7°C° 0 mm 2 mps 681 mmHg 94%
    08:00 -6°C° 0 mm 2 mps 680 mmHg 93%
    09:00 -6°C° 0 mm 2 mps 680 mmHg 91%
    10:00 -5°C° 0 mm 2 mps 680 mmHg 90%
    11:00 -5°C° 0 mm 2 mps 680 mmHg 89%
    12:00 -4°C° 0 mm 2 mps 679 mmHg 88%
    13:00 -4°C° 0 mm 2 mps 679 mmHg 87%
    14:00 -5°C° 0 mm 2 mps 679 mmHg 86%
    15:00 -6°C° 0 mm 3 mps 678 mmHg 85%
    16:00 -7°C° 0 mm 3 mps 678 mmHg 84%
    17:00 -7°C° 0 mm 3 mps 678 mmHg 83%
    18:00 -7°C° 0 mm 3 mps 678 mmHg 83%
    19:00 -7°C° 0 mm 3 mps 677 mmHg 82%
    20:00 -7°C° 0 mm 3 mps 677 mmHg 80%
    21:00 -7°C° 0 mm 3 mps 677 mmHg 78%
    22:00 -7°C° 0 mm 3 mps 677 mmHg 75%
    23:00 -6°C° 0 mm 3 mps 676 mmHg 73%

    21 November, Thursday

    Time Temperature Precipitation Wind Pressure Humidity
    00:00 -5°C° 0 mm 2 mps 676 mmHg 71%
    01:00 -5°C° 0 mm 2 mps 676 mmHg 68%
    02:00 -5°C° 0 mm 2 mps 675 mmHg 67%
    03:00 -5°C° 0 mm 2 mps 675 mmHg 65%
    04:00 -5°C° 0 mm 2 mps 675 mmHg 64%
    05:00 -4°C° 0 mm 2 mps 674 mmHg 64%
    06:00 -4°C° 0 mm 2 mps 674 mmHg 64%
    07:00 -4°C° 0 mm 2 mps 674 mmHg 63%
    08:00 -3°C° 0 mm 2 mps 674 mmHg 65%
    09:00 -2°C° 0 mm 2 mps 673 mmHg 66%
    10:00 -1°C° 0 mm 2 mps 673 mmHg 68%
    11:00 -1°C° 0 mm 2 mps 673 mmHg 68%
    12:00 +1°C° 0 mm 2 mps 672 mmHg 68%
    13:00 +1°C° 0 mm 2 mps 672 mmHg 68%
    14:00 +2°C° 0 mm 1 mps 672 mmHg 67%
    15:00 +1°C° 0 mm 1 mps 672 mmHg 67%
    16:00 0°C° 0 mm 1 mps 672 mmHg 66%
    17:00 0°C° 0 mm 1 mps 672 mmHg 68%
    18:00 0°C° 0 mm 1 mps 672 mmHg 69%
    19:00 -2°C° 0 mm 2 mps 672 mmHg 71%
    20:00 -2°C° 0 mm 2 mps 672 mmHg 72%
    21:00 -2°C° 0 mm 2 mps 672 mmHg 73%
    22:00 -2°C° 0 mm 2 mps 672 mmHg 74%
    23:00 -2°C° 0 mm 2 mps 672 mmHg 73%

    22 November, Friday

    Time Temperature Precipitation Wind Pressure Humidity
    00:00 -2°C° 0 mm 2 mps 672 mmHg 71%
    01:00 -2°C° 0 mm 2 mps 672 mmHg 70%
    02:00 -2°C° 0 mm 2 mps 672 mmHg 70%
    03:00 -2°C° 0 mm 2 mps 672 mmHg 69%
    04:00 -2°C° 0 mm 2 mps 672 mmHg 68%
    05:00 -2°C° 0 mm 2 mps 672 mmHg 69%
    06:00 -2°C° 0 mm 2 mps 672 mmHg 69%
    07:00 -2°C° 0 mm 2 mps 672 mmHg 70%
    08:00 -2°C° 0 mm 2 mps 672 mmHg 70%
    09:00 +1°C° 0 mm 1 mps 672 mmHg 71%
    10:00 +1°C° 0 mm 1 mps 673 mmHg 72%
    11:00 +1°C° 0 mm 1 mps 673 mmHg 72%
    12:00 +2°C° 0 mm 1 mps 673 mmHg 71%
    13:00 +1°C° 0 mm 2 mps 672 mmHg 71%
    14:00 -1°C° 0 mm 2 mps 673 mmHg 71%
    15:00 -1°C° 0 mm 2 mps 673 mmHg 71%
    16:00 -2°C° 0 mm 2 mps 673 mmHg 71%
    17:00 -2°C° 0 mm 2 mps 673 mmHg 72%
    18:00 -2°C° 0 mm 2 mps 673 mmHg 73%
    19:00 -2°C° 0 mm 2 mps 674 mmHg 73%
    20:00 -2°C° 0 mm 2 mps 674 mmHg 73%
    21:00 -2°C° 0 mm 2 mps 674 mmHg 72%
    22:00 -2°C° 0 mm 2 mps 674 mmHg 72%
    23:00 -3°C° 0 mm 2 mps 674 mmHg 70%

    23 November, Saturday

    Time Temperature Precipitation Wind Pressure Humidity
    00:00 -3°C° 0 mm 2 mps 674 mmHg 68%
    01:00 -3°C° 0 mm 2 mps 674 mmHg 67%
    02:00 -3°C° 0 mm 2 mps 674 mmHg 67%
    03:00 -3°C° 0 mm 2 mps 674 mmHg 67%
    04:00 -3°C° 0 mm 2 mps 674 mmHg 67%
    05:00 -3°C° 0 mm 2 mps 674 mmHg 67%
    06:00 -3°C° 0 mm 2 mps 674 mmHg 67%
    07:00 -2°C° 0 mm 3 mps 674 mmHg 66%
    08:00 -2°C° 0 mm 2 mps 674 mmHg 66%
    09:00 -1°C° 0 mm 2 mps 674 mmHg 67%
    10:00 +1°C° 0 mm 2 mps 674 mmHg 67%
    11:00 +1°C° 0 mm 2 mps 673 mmHg 68%
    12:00 +2°C° 0 mm 2 mps 673 mmHg 70%
    13:00 +2°C° 0 mm 2 mps 673 mmHg 71%
    14:00 +2°C° 0 mm 2 mps 672 mmHg 71%
    15:00 +1°C° 0 mm 2 mps 672 mmHg 71%
    16:00 -1°C° 0 mm 2 mps 672 mmHg 71%
    17:00 -1°C° 0 mm 2 mps 671 mmHg 73%
    18:00 -2°C° 0 mm 2 mps 671 mmHg 74%
    19:00 -2°C° 0 mm 2 mps 671 mmHg 75%
    20:00 -3°C° 0 mm 2 mps 671 mmHg 77%
    21:00 -1°C° 0 mm 1 mps 671 mmHg 79%
    22:00 -2°C° 0 mm 1 mps 670 mmHg 81%
    23:00 -4°C° 0 mm 2 mps 670 mmHg 81%
    Show more